Tracking 29528 objects as of 13-Sep-2024
HD Live streaming from Space Station
objects crossing your sky now

COSMOS 886 DEB

Track COSMOS 886 DEB now!
10-day predictions


NORAD ID: 9824
Int'l Code: 1976-126AL
Perigee: 494.0 km
Apogee: 1,824.7 km
Inclination: 65.8 °
Period: 108.4 minutes
Semi major axis: 7530 km
RCS: 0.0878 m2 (small)
Launch date: December 27, 1976
Source: Commonwealth of Independent States (former USSR) (CIS)
Launch site: TYURATAM MISSILE AND SPACE COMPLEX (TTMTR)

Note: This is SATELLITE DEBRIS
Your satellite tracking list
Your tracking list is empty




NASA's NSSDC Master Catalog

Two Line Element Set (TLE):
1 09824U 76126AL  24256.62801666  .00010119  00000-0  22685-2 0  9996
2 09824  65.8112 127.9465 0883552 322.7755  31.5039 13.28550462269154
Source of the keplerian elements: AFSPC